[[{"header":{"parameterUnit":"m.s-1","parameterCategory":1,"la1":30.2991,"la2":30.254,"lo1":-89.0895,"lo2":-89.0444,"dy":0.0017,"dx":0.0017,"nx":28,"ny":28,"refTime":"2025-05-18T21:00:00:Z","depth":0,"parameterNumber":2,"parameterNumberName":"U-component_of_WINDS"},"data":[0,0,0,0,0,0,0,0,0,0,0,0,0,0,0,0,0,0,0,0,0,0,0,0,0,0,0,0,0,0,0,0,0,0,0,0,0,0,0,0,0,0,0,0,0,0,0,0,0,0,0,0,0,0,0,0,0,0,-0.9547,-0.9546,0,-0.9463,-0.9462,-0.9461,-0.941,-0.941,-0.941,-0.941,-0.9322,-0.932,-0.9318,0,0,0,0,0,0,0,0,0,0,0,0,0,-0.9667,-0.9665,-0.9547,-0.9546,-0.9545,-0.9463,-0.9462,-0.946,-0.941,-0.941,-0.941,-0.941,-0.9323,-0.932,-0.9318,0,0,0,0,0,0,0,0,0,0,0,0,0,-0.9602,-0.9664,-0.9548,-0.951,-0.9506,-0.9463,-0.9462,-0.946,-0.941,-0.941,-0.941,-0.9409,-0.9324,-0.9321,-0.9317,-0.9304,0,0,-0.9308,-0.9306,0,0,0,0,0,0,0,0,-0.9605,-0.9597,-0.9517,-0.9513,-0.9508,-0.9447,-0.9471,-0.9408,-0.941,-0.9447,-0.941,-0.9409,-0.9364,-0.9357,-0.9342,-0.93,-0.9297,-0.9307,-0.9305,-0.9304,-0.9303,0,0,0,0,0,0,0,-0.961,-0.9601,-0.9514,-0.9516,-0.951,-0.9498,-0.9489,-0.9459,-0.9408,-0.9444,-0.944,-0.943,-0.9361,-0.9345,-0.934,-0.9295,-0.9308,-0.9305,-0.9303,-0.9301,-0.9239,-0.924,0,0,0,0,0,0,-0.962,-0.9605,-0.9516,-0.9511,-0.9557,-0.9496,-0.9486,-0.9467,-0.9408,-0.9399,-0.9431,-0.9428,-0.9351,-0.9343,-0.9336,-0.9317,-0.9304,-0.9301,-0.9299,-0.9239,-0.9239,-0.924,0,0,0,0,0,0,-0.9623,-0.9613,-0.952,-0.9557,-0.9544,-0.9495,-0.9474,-0.9465,-0.9449,-0.9399,-0.9389,-0.9424,-0.935,-0.9341,-0.9313,-0.9314,-0.93,-0.9297,-0.9239,-0.9239,-0.924,-0.9279,0,0,0,0,0,0,-0.9627,-0.9614,-0.9609,-0.9557,-0.9542,-0.9498,-0.9474,-0.9464,-0.9444,-0.944,-0.939,-0.9381,-0.9349,-0.9318,-0.931,-0.9309,-0.9294,-0.9238,-0.9239,-0.9239,-0.9278,-0.9281,-0.9284,0,0,0,0,0,-0.9631,-0.9623,-0.9608,-0.9598,-0.9534,-0.9498,-0.9489,-0.9453,-0.9444,-0.9438,-0.9406,-0.9382,-0.9315,-0.9316,-0.9306,-0.9304,-0.9238,-0.9239,-0.9239,-0.9276,-0.928,-0.9284,0,0,0,0,0,0,-0.9675,-0.9615,-0.9599,-0.9573,-0.9541,-0.949,-0.9481,-0.9459,-0.9428,-0.9426,-0.9383,-0.9372,-0.9348,-0.9323,-0.9325,-0.9289,-0.9274,-0.9273,-0.9306,-0.9309,-0.9312,-0.9318,-0.9292,0,0,0,0,0,-0.9682,-0.9657,-0.9607,-0.9589,-0.9574,-0.9531,-0.9513,-0.9489,-0.9453,-0.9439,-0.9405,-0.9372,-0.9343,-0.9325,-0.9296,-0.9275,-0.9263,-0.9269,-0.9272,-0.9275,-0.9274,-0.9261,-0.9263,-0.9242,-0.9242,-0.9242,0,0,-0.9695,-0.966,-0.9647,-0.9597,-0.9569,-0.9545,-0.9519,-0.9494,-0.9476,-0.9435,-0.9407,-0.9381,-0.9341,-0.9316,-0.9304,-0.9295,-0.9277,-0.9275,-0.9278,-0.9275,-0.9262,-0.9264,-0.9266,-0.9242,-0.9242,-0.9242,0,0,-0.9707,-0.9678,-0.9661,-0.9634,-0.9592,-0.9563,-0.9559,-0.9511,-0.9492,-0.9463,-0.9433,-0.941,-0.9362,-0.9335,-0.9315,-0.9319,-0.9296,-0.9311,-0.9326,-0.9314,-0.9316,-0.9317,-0.9318,-0.9319,-0.931,-0.931,-0.931,0,-0.9729,-0.9691,-0.9654,-0.9631,-0.9611,-0.9574,-0.9556,-0.9531,-0.9483,-0.9469,-0.946,-0.9399,-0.937,-0.9339,-0.934,-0.9325,-0.9319,-0.9315,-0.9319,-0.9319,-0.932,-0.9321,-0.9321,-0.9312,-0.9312,-0.9312,-0.9311,0,-0.972,-0.9695,-0.9686,-0.964,-0.9618,-0.9598,-0.9558,-0.9541,-0.9519,-0.9491,-0.9463,-0.9426,-0.9389,-0.938,-0.9358,-0.9346,-0.9342,-0.9327,-0.9311,-0.9325,-0.9324,-0.9324,-0.9315,-0.9314,-0.9314,-0.9313,0,0,-0.9755,-0.9691,-0.9688,-0.9667,-0.9619,-0.9598,-0.9577,-0.9542,-0.9528,-0.9496,-0.9477,-0.9438,-0.9423,-0.94,-0.9375,-0.9365,-0.9371,-0.9351,-0.9349,-0.9355,-0.9355,-0.9367,-0.9367,-0.9356,-0.9356,-0.9356,-0.9358,0,-0.976,-0.9719,-0.9686,-0.9658,-0.9634,-0.96,-0.9581,-0.955,-0.9525,-0.9501,-0.9473,-0.9445,-0.9429,-0.9415,-0.9403,-0.9372,-0.937,-0.9372,-0.9337,-0.9337,-0.9347,-0.9367,-0.9379,-0.9383,-0.9358,-0.9358,-0.9358,0,-0.9759,-0.9729,-0.9699,-0.9654,-0.9643,-0.9627,-0.9592,-0.957,-0.9534,-0.9516,-0.9492,-0.9466,-0.9442,-0.943,-0.9397,-0.9399,-0.9384,-0.9367,-0.9366,-0.936,-0.9347,-0.9361,-0.9383,-0.9384,-0.9358,-0.9358,-0.9358,0,-0.9787,-0.9739,-0.9715,-0.9698,-0.9646,-0.9635,-0.9613,-0.9577,-0.9558,-0.9528,-0.9516,-0.9483,-0.9465,-0.9441,-0.9407,-0.9402,-0.9378,-0.9363,-0.9362,-0.9363,-0.9357,-0.9357,-0.9376,-0.9349,-0.9349,-0.9349,-0.9349,0,-0.9795,-0.9778,-0.9727,-0.9712,-0.9692,-0.9655,-0.9636,-0.9611,-0.958,-0.9559,-0.9528,-0.951,-0.9467,-0.9443,-0.9417,-0.9394,-0.9386,-0.9371,-0.9364,-0.9373,-0.9375,-0.9361,-0.9359,-0.9349,-0.9349,-0.9349,-0.9349,0,-0.9823,-0.9788,-0.9759,-0.9712,-0.97,-0.9688,-0.9648,-0.9632,-0.9605,-0.958,-0.9572,-0.953,-0.9501,-0.9466,-0.9425,-0.9408,-0.9386,-0.9376,-0.9398,-0.9394,-0.9395,-0.9395,-0.9404,-0.9403,-0.9378,-0.9379,-0.9379,0,-0.9829,-0.9815,-0.9767,-0.9752,-0.973,-0.9705,-0.9686,-0.965,-0.9631,-0.959,-0.958,-0.9548,-0.9521,-0.9477,-0.9443,-0.9412,-0.94,-0.9406,-0.9395,-0.9405,-0.9399,-0.94,-0.9399,-0.9408,-0.9408,-0.9409,-0.9409,0,-0.9845,-0.9829,-0.9802,-0.977,-0.9748,-0.972,-0.9692,-0.9681,-0.9639,-0.9619,-0.959,-0.9569,-0.9528,-0.9498,-0.9463,-0.944,-0.9417,-0.9413,-0.9411,-0.9419,-0.9432,-0.9425,-0.9405,-0.9412,-0.9412,-0.9412,-0.9412,-0.9411,-0.9861,-0.9847,-0.9812,-0.9783,-0.9758,-0.9733,-0.9716,-0.9687,-0.9662,-0.9626,-0.9606,-0.9577,-0.9543,-0.9494,-0.9472,-0.9449,-0.9441,-0.9438,-0.9437,-0.9437,-0.9439,-0.9437,-0.9443,-0.9443,-0.9442,-0.9442,-0.9442,0,-0.9875,-0.985,-0.9825,-0.9786,-0.9764,-0.9746,-0.9714,-0.9696,-0.9671,-0.9641,-0.9616,-0.9582,-0.9553,-0.9517,-0.9485,-0.9474,-0.9463,-0.9467,-0.9466,-0.9462,-0.9449,-0.9453,-0.9476,-0.9476,-0.9476,-0.9476,-0.9476,-0.9476,-0.9879,-0.9854,-0.9834,-0.9797,-0.9773,-0.9744,-0.9728,-0.9704,-0.968,-0.9644,-0.9619,-0.9597,-0.9565,-0.9531,-0.9503,-0.9493,-0.9483,-0.949,-0.9477,-0.9465,-0.9462,-0.9459,-0.9463,-0.9488,-0.9488,-0.9491,-0.9491,-0.9491]},{"header":{"parameterUnit":"m.s-1","parameterCategory":1,"la1":30.2991,"la2":30.254,"lo1":-89.0895,"lo2":-89.0444,"dy":0.0017,"dx":0.0017,"nx":28,"ny":28,"refTime":"2025-05-18T21:00:00:Z","depth":0,"parameterNumber":3,"parameterNumberName":"V-component_of_WINDS"},"data":[0,0,0,0,0,0,0,0,0,0,0,0,0,0,0,0,0,0,0,0,0,0,0,0,0,0,0,0,0,0,0,0,0,0,0,0,0,0,0,0,0,0,0,0,0,0,0,0,0,0,0,0,0,0,0,0,0,0,4.5208,4.5207,0,4.5126,4.5125,4.5124,4.5052,4.5052,4.5051,4.505,4.4963,4.4961,4.4959,0,0,0,0,0,0,0,0,0,0,0,0,0,4.5301,4.53,4.5208,4.5207,4.5206,4.5126,4.5125,4.5124,4.5052,4.5051,4.5051,4.505,4.4963,4.4961,4.4959,0,0,0,0,0,0,0,0,0,0,0,0,0,4.5244,4.53,4.5208,4.5161,4.5156,4.5126,4.5125,4.5123,4.5053,4.5051,4.505,4.5049,4.4964,4.4961,4.4959,4.4969,0,0,4.4952,4.4951,0,0,0,0,0,0,0,0,4.5248,4.5241,4.5169,4.5164,4.5158,4.5098,4.5126,4.5071,4.5053,4.5092,4.505,4.5049,4.5008,4.5002,4.4989,4.4964,4.4961,4.4952,4.495,4.4949,4.4949,0,0,0,0,0,0,0,4.5252,4.5244,4.5175,4.5168,4.5161,4.5143,4.5134,4.5115,4.5058,4.5088,4.5083,4.5074,4.5005,4.4992,4.4987,4.4959,4.4952,4.495,4.4948,4.4947,4.4941,4.4942,0,0,0,0,0,0,4.5263,4.5248,4.5178,4.5173,4.5201,4.5142,4.5132,4.5119,4.5058,4.5047,4.5075,4.5071,4.4997,4.499,4.4983,4.4992,4.4949,4.4947,4.4946,4.4939,4.4941,4.4942,0,0,0,0,0,0,4.5265,4.5258,4.5181,4.5209,4.5198,4.5142,4.5128,4.5118,4.5104,4.5048,4.5037,4.5072,4.4995,4.4987,4.4974,4.4988,4.4946,4.4944,4.4938,4.494,4.4942,4.5009,0,0,0,0,0,0,4.5268,4.5259,4.5262,4.5209,4.5196,4.5173,4.5129,4.5117,4.5101,4.5094,4.5042,4.5033,4.4994,4.4978,4.4971,4.4984,4.4942,4.4936,4.4939,4.4941,4.5006,4.5013,4.502,0,0,0,0,0,4.5272,4.5283,4.5263,4.5255,4.5199,4.5174,4.5167,4.5123,4.5102,4.5105,4.5069,4.5034,4.4988,4.4977,4.4969,4.4982,4.4935,4.4938,4.4941,4.5002,4.5012,4.502,0,0,0,0,0,0,4.5337,4.5275,4.5252,4.5246,4.5216,4.5162,4.5164,4.5134,4.5108,4.5103,4.5049,4.5037,4.5031,4.5004,4.4993,4.4989,4.4957,4.4958,4.5006,4.5015,4.5022,4.5029,4.494,0,0,0,0,0,4.5351,4.5336,4.5283,4.5283,4.5269,4.522,4.5207,4.5176,4.5142,4.5129,4.5092,4.506,4.5038,4.5025,4.5002,4.5002,4.499,4.5006,4.5014,4.502,4.5022,4.5022,4.5029,4.4952,4.4952,4.4952,0,0,4.5379,4.5343,4.5337,4.5295,4.5268,4.5254,4.5209,4.5196,4.5185,4.5126,4.5112,4.5085,4.5045,4.504,4.5035,4.5017,4.5041,4.5024,4.5029,4.5027,4.5026,4.5033,4.504,4.4953,4.4953,4.4953,0,0,4.5423,4.5394,4.5393,4.5368,4.5328,4.5296,4.5296,4.5247,4.5227,4.5212,4.5169,4.5155,4.5118,4.5093,4.5075,4.5113,4.508,4.5107,4.5144,4.5145,4.5151,4.5157,4.5172,4.5178,4.5109,4.5109,4.5109,0,4.5462,4.5441,4.5395,4.5385,4.5369,4.5317,4.5316,4.5293,4.5247,4.5237,4.5218,4.5174,4.5143,4.5132,4.5142,4.5128,4.5127,4.5112,4.5154,4.5159,4.5163,4.5177,4.5183,4.5113,4.5112,4.5112,4.5111,0,4.5492,4.5478,4.5481,4.5441,4.5425,4.5419,4.5373,4.5361,4.5333,4.5302,4.5289,4.5252,4.5221,4.5216,4.5186,4.5201,4.5192,4.5165,4.5132,4.5175,4.5188,4.5192,4.5118,4.5116,4.5115,4.5114,0,0,4.5573,4.5511,4.5513,4.5495,4.5449,4.5437,4.5429,4.5401,4.5394,4.5365,4.5357,4.5329,4.5305,4.5285,4.5252,4.5253,4.5288,4.5226,4.5224,4.524,4.5304,4.5326,4.5333,4.5266,4.5267,4.5268,4.5308,0,4.5611,4.5596,4.5556,4.5553,4.554,4.5492,4.5486,4.5457,4.5429,4.5413,4.5382,4.5363,4.5331,4.532,4.5318,4.5284,4.5301,4.5281,4.526,4.526,4.5272,4.5339,4.5361,4.5401,4.5312,4.5313,4.5314,0,4.5652,4.5629,4.5626,4.5583,4.5576,4.5571,4.5544,4.5529,4.5496,4.5476,4.5456,4.5421,4.5411,4.538,4.5366,4.5354,4.5343,4.5325,4.5326,4.5323,4.529,4.5339,4.5412,4.5419,4.532,4.532,4.5319,0,4.5714,4.5682,4.5676,4.5662,4.5612,4.561,4.5589,4.5555,4.5541,4.5517,4.5508,4.5482,4.5468,4.5449,4.5409,4.539,4.54,4.5365,4.5383,4.5385,4.5387,4.5388,4.5461,4.5379,4.5379,4.5379,4.5379,0,4.5761,4.5761,4.5704,4.57,4.5699,4.5654,4.5654,4.5628,4.5599,4.559,4.5546,4.5538,4.5484,4.5471,4.5439,4.5433,4.5427,4.541,4.5402,4.5415,4.5417,4.5407,4.5404,4.5381,4.538,4.538,4.538,0,4.583,4.5791,4.5782,4.5737,4.5725,4.5727,4.5687,4.5682,4.5653,4.5642,4.5637,4.559,4.5571,4.5529,4.5499,4.5478,4.5481,4.5465,4.5493,4.5487,4.5508,4.5507,4.5578,4.5586,4.5499,4.5499,4.55,0,4.5862,4.5862,4.5817,4.5809,4.579,4.5777,4.5764,4.5719,4.5707,4.5672,4.5671,4.565,4.5631,4.5604,4.5567,4.5544,4.5528,4.5555,4.5524,4.5538,4.553,4.5531,4.5532,4.5562,4.5563,4.5564,4.5565,0,4.5925,4.5907,4.5891,4.5868,4.5855,4.5834,4.5811,4.5807,4.5757,4.5746,4.5728,4.5713,4.5684,4.5664,4.5636,4.5614,4.5582,4.5575,4.5578,4.5591,4.5608,4.5601,4.5512,4.5573,4.5572,4.5572,4.5571,4.5571,4.5978,4.5976,4.5945,4.5929,4.5908,4.5888,4.5883,4.5853,4.5838,4.5812,4.5786,4.5772,4.574,4.57,4.5681,4.5668,4.5651,4.5655,4.5657,4.5659,4.5665,4.561,4.5663,4.5662,4.5662,4.5662,4.5662,0,4.604,4.6018,4.6004,4.5975,4.5963,4.5935,4.5909,4.59,4.5888,4.5863,4.5846,4.5826,4.5807,4.577,4.5748,4.5745,4.573,4.5741,4.5741,4.5737,4.5681,4.5681,4.5754,4.5754,4.5754,4.5754,4.5754,4.5754,4.6071,4.6067,4.6046,4.6032,4.601,4.5996,4.5984,4.5966,4.5946,4.5927,4.5912,4.5888,4.5858,4.5834,4.5816,4.5805,4.58,4.5816,4.5801,4.5749,4.574,4.5732,4.5732,4.5815,4.5815,4.5858,4.5858,4.5859]}]]